Skip to main content Skip to accessibility
This website is not compatible with your web browser. You should install a newer browser. If you live in Jersey and need help upgrading call the States of Jersey web team on 440099.
Homegov.je

Information and public services for the Island of Jersey

L'înformâtion et les sèrvices publyis pouor I'Île dé Jèrri

  • Choose the service you want to log in to:

  • gov.je

    Update your notification preferences

  • one.gov.je

    Access government services

  • CAESAR

    Clear goods through customs or claim relief

  • Talentlink

    View or update your States of Jersey job application

Local METARs

METAR EGJJ 220720Z 24011KT 220V300 9999 VCSH FEW030 06/02 Q0993

METAR EGJB 220720Z 28006KT 9999 FEW030 06/01 Q0993

METAR EGJA 220720Z 29009KT 9999 FEW028 07/02 Q0993

METAR LFRD 220700Z AUTO 24005KT CAVOK 04/03 Q0994 NOSIG

METAR LFRC 220700Z AUTO 24007KT 9999 BKN029 BKN035 BKN240 03/01 Q0992 NOSIG

 

 

 

​Apologies to the disruption to normal service. Commercial Aviation Services are available from the Jersey Met Forecaster 01534 448765.

Times are in Greenwich Mean Time (GMT) and not British Summer Time (BST). They will be one hour different during BST.

Back to top
rating button